sat.trackr.live / text

‹ back to catalog

STARLINK-30958

NORAD 58457 · 2023-183W

PAYLOAD ACTIVE UNKNOWN

§ Identity

Operator
Country
US
Launch date
2023-11-28
Launch site
AFETR
Launch vehicle
Mass (kg)
RCS (m²)

Purposes: comms

External: N2YO · Heavens-Above · Gunter

§ Orbital elements

Epoch: 2026-05-24T21:36:05.994432Z

Period
94.27 min
Inclination
43.0032°
Eccentricity
0.0001297
Mean motion
15.27572346 rev/d
Perigee alt
482.2 km
Apogee alt
484.0 km
Semi-major
6,861.2 km
B*
9.0503e-6
RAAN
330.8871°
Arg perigee
269.7950°
Mean anomaly
90.2753°
Rev number
13,839

§ Raw data

STARLINK-309581 58457U 23183W   26144.90006938 -.00000013  00000+0  90503-5 0  99942 58457  43.0032 330.8871 0001297 269.7950  90.2753 15.27572346138392

JSON: /api/v1/satellites/58457 · /tle

For live sub-satellite position, see the globe view (requires WebGL).

§ Visibility from observer

Set your observer location to see the next 7 days of passes ≥ 10°. The values pass through the URL so the page stays shareable.

No JS? Fill the form by hand. The geolocation button needs JavaScript.